Starlink 31233

operational
NORAD ID: 58826 Int'l Des: 2024-017 Owner: SPXS Country: US Constellation: starlink
LEOCIRCULAR

About Starlink 31233

Description loading...

Live Position

Loading 3D Globe...

Upcoming Passes

Altitude History

Altitude vs Time

uPlot chart will show altitude changes over time

Two-Line Element Set

1 58826U 24017A 25303.82214944 .00001755 00000-0 71396-4 0 9998
2 58826 53.1578 87.4953 0001248 83.9487 276.1656 15.30185471100290
Epoch: Oct 30, 2025 • Age: 23 hours

Current Status

Altitude 477.7 km
Velocity 7.63 km/s
Sub-Earth Point -7.74°S, 48.94°W
Launch Date Jan 24, 2024
Age 1.7 years
Type internet

Technical Details

Classification Payload
Mass 730.00 kg
Dry Mass 700.00 kg
Total Mass 730.00 kg
Length 0.30 m
Diameter 4.10 m
Span 29.00 m
Shape Box + pan
Manufacturer SPXS
Bus Type Starlink V2M
Phase Status In Orbit
Owner/State SPXS/US

Large Constellations

Loading constellations...